Wind_Speed
28 28 27 25 25 24 24 23 23 21 20 20 18 16 15 14 13 12 11 11 10 10 9 9 8 8 8 8 8 9 10 10 11 12 13 13 14 16 17 17 18 20 21 22
30 30 30 29 27 27 27 26 26 25 23 22 21 19 18 17 15 14 13 13 12 12 11 10 9 9 9 9 9 10 11 11 12 13 14 14 14 15 17 18 20 21 21 22
31 32 33 32 29 29 28 27 27 27 26 25 23 23 21 20 19 18 17 16 15 14 13 13 12 12 11 11 11 11 12 13 14 14 15 15 16 17 18 20 21 22 24 24
34 35 37 31 32 30 30 30 30 30 29 27 26 26 25 24 23 21 19 18 17 16 15 15 15 16 16 15 15 15 15 16 16 16 17 18 18 19 20 21 23 24 25 26
35 35 36 33 33 31 31 31 31 31 30 29 28 28 28 27 26 24 22 21 20 19 18 18 18 19 19 19 18 18 18 19 19 19 20 21 21 21 22 23 23 25 26 27
34 34 34 32 33 30 31 32 31 31 31 30 30 30 30 29 28 27 26 25 24 23 22 22 21 21 22 22 22 21 21 22 22 23 23 23 23 23 23 25 26 27 29 30
30 32 32 32 30 29 31 31 29 29 30 30 31 32 31 30 30 30 29 28 27 25 25 24 24 23 23 24 25 25 24 25 25 25 25 24 25 26 27 28 29 30 31 32
28 29 30 29 27 29 29 28 28 28 29 30 31 31 31 31 32 31 31 30 30 29 28 27 27 27 27 28 28 28 28 27 27 27 27 27 28 28 29 30 31 33 34 35
27 27 28 27 27 27 27 28 28 28 29 30 31 31 31 31 31 32 32 31 31 31 31 29 29 30 30 31 30 30 29 29 29 28 28 29 30 31 32 32 33 35 36 38
24 24 25 25 25 25 26 26 27 28 28 30 31 31 31 31 31 32 33 33 32 32 32 31 31 31 32 31 31 30 29 29 29 30 30 31 31 32 32 33 35 36 37 39
22 22 23 23 23 24 24 24 25 26 27 28 28 29 29 29 30 30 30 29 29 30 30 31 30 31 31 31 30 31 30 29 29 29 30 31 32 33 34 35 37 38 40 41
20 21 21 20 21 22 22 22 23 25 25 26 26 27 28 28 27 27 27 28 28 29 29 29 28 28 29 30 29 28 28 27 28 29 30 31 33 34 35 37 39 41 42 44
17 18 18 17 17 17 17 18 20 22 23 23 24 25 25 25 25 26 26 27 27 26 26 27 27 26 26 27 27 27 27 28 29 30 31 33 34 36 37 39 41 43 45 47
14 14 14 14 14 13 14 15 17 18 19 20 20 21 22 21 22 22 22 23 22 22 23 24 24 23 23 24 26 27 27 28 30 31 33 35 37 39 41 43 45 47 49 50
11 11 11 11 12 12 11 13 15 15 16 18 19 19 19 19 19 18 18 18 18 19 20 20 20 21 23 24 26 27 28 30 32 34 35 37 39 42 44 46 48 50 51 52
8 8 8 9 10 11 10 11 13 14 15 16 16 17 18 18 17 16 15 15 15 16 18 19 20 22 23 24 25 27 30 32 34 36 38 40 42 45 47 48 49 50 51 51
8 9 9 9 9 10 10 10 11 11 11 12 12 13 13 13 12 12 13 14 15 17 18 19 21 22 24 25 28 30 32 34 36 39 41 43 45 47 48 48 49 50 50 50
9 9 9 8 7 7 7 8 9 9 9 9 9 10 9 10 10 11 12 14 15 17 19 20 22 24 27 29 31 34 36 38 40 42 44 45 46 47 48 48 48 48 48 47
9 9 9 9 8 8 8 9 10 10 11 9 9 8 8 9 10 12 14 16 18 20 21 24 26 28 30 33 35 37 39 41 43 44 44 45 46 47 47 47 46 45 45 44
10 9 8 7 7 7 7 7 8 7 6 6 6 7 9 11 12 14 16 18 20 23 25 27 29 31 33 36 38 39 41 42 43 44 44 45 45 44 44 44 43 42 41 40
9 8 7 7 6 6 6 5 5 5 6 7 9 10 12 14 16 18 20 22 24 26 28 30 32 34 35 37 38 39 40 41 42 42 43 43 42 42 41 41 40 39 38 38
10 9 8 7 6 6 7 7 8 8 9 11 12 14 16 18 19 21 23 25 27 29 30 32 33 34 35 36 37 38 39 40 40 40 40 40 39 39 38 37 37 36 36 35
12 10 9 9 8 9 9 10 10 11 13 14 16 18 20 22 23 25 26 28 29 30 31 32 33 34 35 36 36 37 37 38 38 38 37 37 36 35 35 34 34 34 34 34
11 10 10 10 10 11 11 12 13 15 16 18 19 21 23 25 26 27 29 30 30 31 32 33 33 34 34 35 35 35 35 35 35 34 34 33 33 32 32 33 33 33 32 32
11 11 11 12 13 13 14 15 16 18 19 21 22 24 25 26 28 28 29 30 30 31 32 32 33 33 32 32 32 32 32 31 31 30 30 30 30 30 31 31 30 30 29 29
12 12 12 13 14 16 17 18 19 20 22 23 24 26 27 28 29 29 29 30 30 30 30 30 30 29 29 29 28 28 28 28 27 27 27 28 28 28 28 27 26 26 27 27
13 14 15 16 17 18 20 21 22 22 23 24 26 27 27 28 28 28 28 28 27 27 27 26 25 25 25 25 25 25 25 25 25 25 25 25 25 24 24 24 25 25 25 25
Wind_Direction
240 243 248 250 249 250 251 252 254 257 261 263 266 266 269 275 280 284 289 294 303 310 308 302 291 275 265 255 249 242 238 235 232 235 239 242 243 242 241 243 246 249 252 256
247 249 251 250 250 253 254 256 258 257 257 258 259 258 260 263 268 272 276 282 288 294 294 293 290 282 272 265 259 255 253 250 246 245 249 250 247 244 246 248 250 253 256 260
250 252 254 254 253 253 255 256 257 257 256 254 252 253 255 255 259 264 268 273 278 282 283 284 284 280 277 272 268 264 263 260 254 255 256 255 252 252 254 254 254 256 260 264
251 253 255 257 255 254 256 256 256 256 254 251 250 250 252 254 255 258 262 265 269 274 274 275 276 276 273 274 269 265 263 261 260 260 259 258 258 259 262 263 263 263 267 268
252 255 259 259 259 258 258 257 254 253 252 250 250 249 249 251 252 253 254 257 261 267 269 270 271 272 270 270 268 265 264 263 262 263 264 261 261 263 266 266 267 269 273 275
253 255 257 259 259 258 258 257 253 251 250 249 248 248 247 246 248 249 249 253 256 260 264 266 267 268 267 266 266 263 263 263 264 264 265 264 262 263 264 267 270 272 275 276
254 256 257 258 259 257 255 254 251 248 247 246 245 244 245 243 243 244 246 250 252 255 260 262 264 267 267 266 265 263 263 263 264 265 264 263 264 265 267 270 272 275 277 279
252 255 258 258 256 254 252 250 247 244 243 243 243 242 242 241 240 241 244 247 249 253 257 260 261 262 264 264 262 261 262 263 264 266 265 265 267 269 271 273 276 279 281 282
253 256 259 260 257 253 250 247 244 242 241 240 239 240 240 239 238 240 242 244 247 251 255 257 258 260 263 263 262 260 259 261 262 264 265 266 269 272 274 277 279 280 282 283
256 258 260 260 258 254 249 246 242 239 238 237 237 238 239 238 239 241 242 244 248 251 254 255 258 261 263 261 260 258 258 259 262 264 266 268 272 274 277 279 281 283 284 286
258 259 259 258 255 251 247 244 240 235 235 234 233 233 235 237 239 240 242 246 247 251 253 255 257 258 258 255 256 258 259 262 265 269 271 273 274 278 281 283 285 286 286 287
254 255 256 255 252 249 244 240 235 232 231 230 231 233 235 236 238 241 245 247 249 251 250 252 255 256 257 259 258 259 263 265 268 271 273 276 278 281 283 285 286 287 288 289
251 250 249 248 246 241 235 231 227 227 227 227 227 230 232 233 236 239 243 247 247 248 248 252 254 255 257 259 260 262 265 267 271 274 277 280 282 284 286 287 289 290 291 292
244 244 241 238 235 229 226 221 220 221 222 222 222 226 229 232 236 237 238 240 242 245 249 252 252 254 259 262 263 266 270 273 275 278 281 284 286 288 289 290 291 292 293 294
240 240 238 231 220 218 218 215 211 210 211 214 216 219 222 226 229 229 232 235 238 243 247 249 254 259 263 266 269 273 277 279 281 283 286 288 290 291 292 293 294 295 295 296
230 227 225 215 209 210 212 208 204 201 202 207 206 209 213 217 221 225 230 235 242 249 254 259 264 268 269 272 276 280 282 285 287 289 290 291 292 293 295 296 296 297 298 298
216 205 198 197 195 194 195 194 199 200 200 204 208 210 212 215 222 228 234 242 251 257 262 267 272 276 279 282 285 287 288 290 291 292 293 294 295 296 297 298 299 299 300 300
201 193 187 192 192 190 186 189 194 195 196 201 204 209 213 219 227 236 246 254 261 267 272 277 281 285 287 289 291 292 293 293 294 295 296 297 298 299 299 300 300 301 301 302
192 192 189 190 188 186 188 192 193 196 196 199 208 217 229 240 249 257 264 271 276 279 282 286 290 291 292 293 294 294 295 295 296 297 298 299 299 300 300 301 301 301 302 302
188 181 179 184 187 187 186 190 197 201 208 220 235 248 257 265 270 276 280 284 287 290 292 293 294 295 295 295 296 297 297 298 298 299 299 300 300 301 302 302 302 302 302 302
188 186 189 195 201 203 208 215 226 239 252 263 271 276 280 284 286 289 290 291 293 294 294 295 296 297 297 298 299 299 300 300 300 300 301 301 302 303 303 303 302 302 302 303
204 207 211 212 219 229 236 243 252 260 267 274 279 283 287 289 291 292 293 294 296 297 297 298 299 300 301 301 302 302 302 303 303 303 303 303 303 303 303 303 303 303 303 304
216 221 224 229 240 248 254 261 267 273 278 282 285 288 290 292 294 296 297 298 299 300 300 301 301 302 303 303 304 305 305 305 305 305 305 305 305 304 304 304 304 303 303 304
222 226 232 240 249 256 264 271 277 281 285 287 290 292 294 295 296 298 298 299 300 301 301 302 302 303 303 304 305 306 306 307 307 308 307 307 307 307 306 306 306 306 306 306
234 239 245 252 259 265 271 277 281 285 287 289 291 292 294 295 297 298 298 299 299 300 301 302 302 303 304 305 306 308 309 310 311 311 311 311 311 311 311 311 310 310 309 309
247 253 258 263 267 271 276 280 284 287 288 290 291 293 294 295 296 297 298 298 299 300 301 303 305 306 308 309 310 312 313 314 315 316 316 316 317 317 317 317 316 315 315 315
256 259 264 270 275 278 281 283 285 286 287 289 291 293 295 296 297 298 299 300 301 302 304 306 308 309 311 313 315 316 317 318 319 320 321 322 323 323 324 324 324 323 322 321
Height
5815 5816 5818 5820 5822 5823 5825 5827 5829 5831 5832 5832 5831 5831 5831 5830 5830 5829 5829 5828 5828 5827 5826 5825 5825 5825 5825 5826 5826 5827 5828 5828 5829 5830 5831 5832 5833 5834 5835 5836 5837 5838 5839 5839
5806 5809 5810 5812 5815 5816 5818 5819 5821 5823 5824 5825 5825 5825 5826 5826 5826 5825 5825 5825 5825 5825 5824 5824 5824 5824 5824 5824 5825 5825 5826 5826 5827 5828 5828 5829 5829 5830 5831 5832 5832 5833 5833 5834
5798 5800 5800 5803 5807 5808 5810 5811 5813 5814 5817 5817 5818 5819 5819 5820 5821 5821 5821 5821 5821 5821 5821 5821 5821 5821 5822 5822 5822 5822 5823 5823 5824 5824 5825 5825 5826 5826 5826 5826 5827 5827 5827 5827
5789 5791 5791 5798 5797 5799 5800 5802 5804 5805 5807 5808 5810 5811 5812 5814 5815 5815 5816 5816 5817 5817 5817 5817 5818 5818 5818 5818 5818 5819 5819 5819 5820 5820 5821 5821 5821 5821 5821 5821 5821 5821 5820 5820
5779 5780 5782 5786 5786 5789 5790 5792 5793 5795 5797 5799 5801 5803 5804 5806 5807 5809 5810 5811 5812 5812 5812 5813 5813 5813 5813 5814 5814 5814 5814 5814 5815 5815 5815 5816 5816 5816 5815 5815 5814 5814 5813 5813
5769 5771 5773 5777 5776 5778 5781 5782 5783 5785 5787 5790 5792 5794 5796 5797 5799 5801 5803 5804 5805 5806 5807 5807 5807 5808 5808 5808 5809 5809 5809 5809 5809 5809 5809 5809 5809 5809 5809 5808 5807 5806 5805 5804
5760 5761 5763 5765 5767 5769 5772 5773 5774 5775 5777 5780 5782 5784 5787 5789 5790 5793 5795 5797 5798 5799 5800 5801 5801 5802 5802 5802 5803 5803 5803 5803 5803 5803 5803 5803 5802 5802 5801 5801 5799 5798 5797 5795
5752 5753 5756 5755 5758 5759 5761 5762 5764 5766 5768 5770 5772 5775 5777 5780 5782 5784 5787 5789 5791 5792 5793 5794 5794 5795 5795 5795 5795 5796 5796 5796 5796 5796 5796 5795 5795 5794 5793 5792 5791 5789 5788 5786
5744 5747 5746 5746 5747 5749 5750 5752 5754 5756 5759 5761 5763 5766 5768 5771 5773 5776 5779 5781 5782 5784 5785 5786 5787 5788 5788 5788 5788 5788 5788 5788 5788 5788 5788 5787 5786 5786 5785 5783 5781 5780 5778 5776
5736 5737 5737 5738 5738 5740 5741 5743 5745 5747 5750 5752 5755 5757 5760 5763 5765 5768 5770 5772 5774 5776 5777 5778 5779 5779 5779 5780 5780 5779 5780 5780 5780 5779 5779 5778 5778 5777 5775 5774 5772 5770 5767 5765
5729 5730 5729 5730 5730 5731 5733 5734 5736 5739 5741 5744 5746 5749 5752 5754 5757 5759 5762 5764 5765 5767 5769 5770 5771 5771 5771 5771 5771 5772 5772 5772 5771 5771 5770 5769 5769 5767 5766 5764 5762 5760 5757 5754
5722 5722 5722 5723 5723 5723 5725 5727 5728 5731 5733 5736 5739 5742 5745 5747 5749 5752 5755 5756 5758 5759 5761 5762 5763 5764 5764 5764 5764 5764 5764 5764 5763 5763 5762 5761 5760 5758 5755 5754 5751 5748 5745 5742
5715 5715 5715 5716 5716 5717 5718 5720 5721 5724 5727 5730 5733 5736 5738 5740 5743 5745 5748 5749 5751 5752 5754 5755 5756 5756 5757 5757 5757 5756 5756 5755 5755 5754 5753 5751 5750 5747 5745 5743 5740 5736 5733 5729
5710 5710 5710 5711 5711 5712 5713 5715 5717 5719 5722 5725 5728 5731 5733 5735 5737 5739 5741 5743 5745 5746 5748 5749 5749 5749 5750 5750 5750 5749 5749 5747 5746 5745 5743 5741 5739 5736 5734 5731 5728 5723 5719 5715
5706 5706 5706 5707 5708 5709 5710 5712 5713 5716 5718 5721 5724 5726 5728 5731 5733 5735 5736 5738 5740 5741 5742 5743 5744 5744 5744 5744 5743 5742 5741 5740 5738 5737 5734 5731 5728 5725 5722 5718 5714 5709 5705 5700
5703 5703 5703 5704 5705 5707 5708 5710 5712 5713 5716 5718 5721 5723 5725 5727 5729 5731 5733 5734 5736 5737 5737 5738 5738 5738 5737 5737 5736 5735 5734 5732 5730 5727 5724 5721 5717 5713 5709 5704 5700 5695 5690 5685
5701 5701 5702 5703 5704 5706 5708 5709 5711 5713 5715 5717 5719 5721 5723 5724 5726 5728 5729 5730 5732 5732 5733 5733 5732 5732 5731 5730 5728 5727 5725 5722 5719 5716 5713 5709 5704 5700 5695 5691 5686 5681 5676 5670
5699 5700 5701 5703 5704 5705 5707 5708 5710 5712 5714 5715 5717 5719 5721 5722 5724 5725 5726 5727 5727 5727 5727 5727 5726 5725 5724 5722 5720 5717 5715 5712 5708 5705 5700 5696 5691 5687 5682 5677 5672 5667 5662 5657
5698 5699 5700 5702 5703 5705 5706 5708 5709 5711 5713 5714 5716 5718 5719 5720 5721 5721 5722 5722 5722 5722 5721 5720 5718 5717 5715 5712 5710 5707 5703 5700 5696 5692 5687 5683 5678 5674 5669 5664 5659 5654 5649 5644
5697 5699 5700 5701 5703 5704 5706 5707 5709 5710 5711 5713 5714 5715 5716 5717 5717 5717 5717 5717 5716 5715 5714 5712 5710 5708 5705 5702 5699 5695 5692 5687 5683 5679 5675 5670 5666 5661 5656 5651 5646 5642 5637 5633
5697 5698 5700 5701 5702 5704 5705 5706 5708 5709 5710 5711 5712 5712 5713 5713 5713 5712 5711 5710 5709 5707 5705 5703 5701 5698 5695 5691 5688 5684 5680 5676 5671 5667 5663 5658 5653 5649 5644 5639 5635 5631 5626 5622
5695 5697 5698 5700 5701 5703 5704 5705 5706 5707 5707 5708 5708 5708 5708 5708 5707 5706 5705 5703 5701 5699 5696 5694 5691 5687 5684 5681 5677 5673 5669 5664 5660 5655 5651 5646 5642 5637 5633 5629 5624 5620 5616 5611
5694 5696 5697 5698 5699 5701 5702 5702 5703 5703 5704 5704 5704 5703 5702 5702 5700 5699 5697 5695 5692 5690 5687 5684 5681 5677 5674 5671 5667 5663 5658 5654 5650 5645 5641 5636 5632 5627 5623 5619 5614 5610 5606 5602
5692 5694 5695 5696 5697 5698 5699 5699 5699 5699 5699 5698 5698 5697 5696 5694 5692 5690 5688 5686 5683 5681 5678 5675 5672 5668 5665 5661 5657 5653 5649 5645 5640 5636 5631 5627 5622 5618 5614 5609 5605 5601 5596 5592
5690 5691 5692 5693 5694 5695 5695 5695 5695 5694 5694 5693 5691 5690 5688 5687 5685 5682 5680 5678 5675 5672 5669 5666 5663 5659 5656 5652 5648 5644 5640 5636 5631 5627 5623 5618 5614 5610 5605 5601 5596 5592 5588 5584
5687 5688 5689 5689 5690 5690 5690 5690 5689 5688 5687 5686 5684 5683 5681 5679 5677 5674 5672 5669 5667 5664 5661 5658 5654 5651 5648 5644 5640 5636 5632 5628 5624 5620 5616 5611 5607 5602 5598 5593 5589 5585 5580 5576
5683 5684 5684 5685 5685 5684 5684 5683 5682 5681 5680 5679 5677 5675 5673 5671 5669 5666 5664 5661 5659 5656 5653 5650 5647 5644 5640 5637 5633 5630 5626 5622 5618 5614 5610 5606 5601 5597 5592 5588 5583 5579 5574 5570